Printer-friendly version

IAU Minor Planet Center

Minor Planet Center

MPEC 2007-V45 : 2007 VH8

The following Minor Planet Electronic Circular may be linked-to from your own Web pages, but must not otherwise be redistributed electronically.


Read MPEC 2007-V44 Read MPEC 2007-V46


M.P.E.C. 2007-V45                                Issued 2007 Nov. 6, 13:02 UT

     The Minor Planet Electronic Circulars contain information on unusual
         minor planets and routine data on comets.  They are published
   on behalf of Commission 20 of the International Astronomical Union by the
          Minor Planet Center, Smithsonian Astrophysical Observatory,
                          Cambridge, MA 02138, U.S.A.

             Prepared using the Tamkin Foundation Computer Network

                              MPC@CFA.HARVARD.EDU
          URL http://www.cfa.harvard.edu/iau/mpc.html  ISSN 1523-6714

                                   2007 VH8

Observations:
     K07V08H* C2007 11 05.25222 02 03 40.30 +10 26 54.2          19.3   EV045704
     K07V08H  C2007 11 05.26441 02 03 37.46 +10 27 59.5          19.5   EV045704
     K07V08H  C2007 11 05.27654 02 03 34.67 +10 29 07.7          19.7   EV045704
     K07V08H  C2007 11 05.28861 02 03 31.86 +10 30 13.6          19.6   EV045704
     K07V08H  C2007 11 05.30068 02 03 28.98 +10 31 20.6          19.8   EV045704
     K07V08H  C2007 11 06.00083 02 00 53.26 +11 36 20.8                 EV045J95
     K07V08H  C2007 11 06.00473 02 00 52.37 +11 36 42.9                 EV045J95
     K07V08H  C2007 11 06.00882 02 00 51.24 +11 37 05.6          19.7 R EV045J95
     K07V08H 5C2007 11 06.32153 01 59 40.21 +12 06 51.3          19.3 R EV045673
     K07V08H 5C2007 11 06.32384 01 59 39.65 +12 07 04.9                 EV045673
     K07V08H 5C2007 11 06.33213 01 59 37.64 +12 07 51.6                 EV045673
     K07V08H 5C2007 11 06.33808 01 59 36.23 +12 08 23.5                 EV045673

Observer details:
673 Table Mountain Observatory, Wrightwood.  Observer J. Young.  0.61-m f/16
    Cassegrain + CCD.
704 Lincoln Laboratory ETS, New Mexico.  Observers M. Bezpalko, D. Torres,
    R. Kracke, G. Spitz, J. Kistler.  Measurers J. Stuart, S. Scruggs.  1.0-m
    f/2.15 reflector + CCD.
J95 Great Shefford.  Observer P. Birtwhistle.  0.40-m f/6.0 Schmidt-Cassegrain
    + CCD.

Orbital elements:
2007 VH8                                                 Earth MOID = 0.2069 AU
Epoch 2007 Oct. 27.0 TT = JDT 2454400.5                 MPC
M 346.06020              (2000.0)            P               Q
n   0.25058835     Peri.   44.32614     +0.12173210     -0.95233793
a   2.4916984      Node    41.19066     +0.75095527     -0.09590005
e   0.5553317      Incl.   25.13260     +0.64903581     +0.28957839
P   3.93           H   21.3           G   0.15           U   9
Residuals in seconds of arc
071105 704  0.1+  0.7+    071105 704  1.1-  0.2+    071106 673  0.3-  0.3+
071105 704  0.1-  1.1-    071106 J95  0.7+  0.1+    071106 673  0.3-  0.7+
071105 704  0.3+  0.2+    071106 J95  1.1+  0.2+    071106 673  0.5-  0.2+
071105 704  0.1+  0.3-    071106 J95  1.4-  0.2-    071106 673  0.2-  1.9-

Ephemeris:
2007 VH8                 a,e,i = 2.49, 0.56, 25                  q = 1.1080
Date    TT    R. A. (2000) Decl.     Delta      r     Elong.  Phase     V
2007 11 06    02 00.90   +11 36.6    0.247    1.235   169.1     8.7    19.3
2007 11 16    01 16.24   +29 03.0    0.225    1.188   149.3    25.2    19.6
2007 11 26    00 20.34   +45 33.6    0.239    1.151   128.2    42.4    20.1
2007 12 06    23 20.98   +56 53.9    0.278    1.124   113.1    53.7    20.7
2007 12 16    22 26.84   +63 53.5    0.328    1.110   104.0    59.3    21.2
2007 12 26    21 41.00   +68 39.2    0.379    1.109    99.2    61.1    21.6
2008 01 05    21 01.33   +72 32.7    0.427    1.122    97.4    60.4    21.9

Timothy B. Spahr             (C) Copyright 2007 MPC           M.P.E.C. 2007-V45

Read MPEC 2007-V44 Read MPEC 2007-V46


Our Web policy. Index to the CBAT/MPC/ICQ pages.


Valid HTML 4.01!